Binghamton, NY
on Sunday, December 10, 2017

Sunday
       
Previous Day Next Day
Daily Summary
 ActualAverageRecord
Temperature
Mean Temperature °F °C 29°F -2°C  
Max Temperature 30°F -1°C 35°F 2°C 64°F 17°C (1966)
Min Temperature 20°F -7°C 23°F -5°C 1°F -17°C (1968)
Degree Days
Heating Degree Days 40 36  
Month to date heating degree days 327 344  
Since 1 July heating degree days 1725 1919  
Cooling Degree Days 0 0  
Month to date cooling degree days 0 0  
Year to date cooling degree days 349 381  
Moisture
Dew Point 19°F -7°C   
Average Humidity 76    
Maximum Humidity 88    
Minimum Humidity 63    
Precipitation
Precipitation 0.01 in / 0.25 cm 0.10 in / 2.54 cm 1.07 in / 2.72 cm (2004)
Month to date precipitation 0.32 1.03  
Year to date precipitation 47.21 37.50  
Snow
Snow 0.30 in / 0.76 cm 0.50 in / 1.27 cm 7.90 in / 20.07 cm (1997)
Month to date snowfall 0.3 5.0  
Since 1 July snowfall 2.1 11.8  
Snow Depth T in / T cm   
Wind
Wind Speed 10 mph / 16 km/h   
Max Wind Speed 20 mph / 32 km/h   
Max Gust Speed 27 mph / 43 km/h   
Visibility 7 miles / 11 kilometers   
Events Snow   

Key: T is trace of precipitation, MM is missing value
Source: NWS Daily Summary
Time(EST)TemperatureDew PointHumidity Pressure Visibility Wind DirectionWind SpeedGust SpeedPrecipitationEvents Conditions
12:53 AM 21.0°F -6.1°C 14.0°F -10.0°C 74% 29.74 in / 1007.0 hPa 10.0 miles / 16.1 kilometers West 4.6 mph / 7.4 km/h - N/A   Partly Cloudy
1:53 AM 21.0°F -6.1°C 14.0°F -10.0°C 74% 29.75 in / 1007.2 hPa 10.0 miles / 16.1 kilometers WNW 4.6 mph / 7.4 km/h - N/A   Partly Cloudy
2:53 AM 21.0°F -6.1°C 15.1°F -9.4°C 78% 29.77 in / 1007.9 hPa 10.0 miles / 16.1 kilometers WSW 5.8 mph / 9.3 km/h - N/A   Overcast
3:53 AM 21.0°F -6.1°C 15.1°F -9.4°C 78% 29.77 in / 1007.9 hPa 8.0 miles / 12.9 kilometers West 6.9 mph / 11.1 km/h - 0.00 in / 0.0 cm Snow Light Snow
4:24 AM 21.0°F -6.1°C 17.1°F -8.3°C 85% 29.70 in / 1005.6 hPa 2.5 miles / 4.0 kilometers West 5.8 mph / 9.3 km/h - 0.00 in / 0.0 cm Snow Light Snow
4:53 AM 21.0°F -6.1°C 18.0°F -7.8°C 88% 29.78 in / 1008.2 hPa 4.0 miles / 6.4 kilometers WSW 6.9 mph / 11.1 km/h - 0.00 in / 0.0 cm Snow Light Snow
5:14 AM 21.9°F -5.6°C 18.0°F -7.8°C 85% 29.71 in / 1006.0 hPa 10.0 miles / 16.1 kilometers West 8.1 mph / 13.0 km/h - 0.00 in / 0.0 cm   Overcast
5:21 AM 21.9°F -5.6°C 18.0°F -7.8°C 85% 29.71 in / 1006.0 hPa 10.0 miles / 16.1 kilometers WSW 10.4 mph / 16.7 km/h - 0.00 in / 0.0 cm   Overcast
5:53 AM 21.9°F -5.6°C 18.0°F -7.8°C 85% 29.79 in / 1008.8 hPa 10.0 miles / 16.1 kilometers WSW 10.4 mph / 16.7 km/h - 0.00 in / 0.0 cm   Overcast
6:35 AM 21.9°F -5.6°C 18.0°F -7.8°C 85% 29.74 in / 1007.0 hPa 8.0 miles / 12.9 kilometers SW 6.9 mph / 11.1 km/h - 0.00 in / 0.0 cm Snow Light Snow
6:53 AM 21.9°F -5.6°C 18.0°F -7.8°C 85% 29.81 in / 1009.4 hPa 10.0 miles / 16.1 kilometers WSW 6.9 mph / 11.1 km/h - 0.00 in / 0.0 cm   Overcast
7:53 AM 23.0°F -5.0°C 19.0°F -7.2°C 85% 29.83 in / 1010.0 hPa 9.0 miles / 14.5 kilometers WSW 9.2 mph / 14.8 km/h - N/A   Overcast
8:50 AM 24.8°F -4.0°C 19.4°F -7.0°C 80% 29.79 in / 1008.7 hPa 9.0 miles / 14.5 kilometers WSW 9.2 mph / 14.8 km/h - N/A   Overcast
8:53 AM 24.1°F -4.4°C 19.9°F -6.7°C 84% 29.86 in / 1010.9 hPa 9.0 miles / 14.5 kilometers WSW 8.1 mph / 13.0 km/h - N/A   Overcast
9:15 AM 25.0°F -3.9°C 21.0°F -6.1°C 85% 29.79 in / 1008.7 hPa 4.0 miles / 6.4 kilometers WSW 9.2 mph / 14.8 km/h - 0.00 in / 0.0 cm Snow Light Snow
9:33 AM 25.0°F -3.9°C 21.9°F -5.6°C 88% 29.79 in / 1008.7 hPa 1.8 miles / 2.8 kilometers WSW 9.2 mph / 14.8 km/h - 0.00 in / 0.0 cm Snow Light Snow
9:41 AM 25.0°F -3.9°C 21.9°F -5.6°C 88% 29.80 in / 1009.0 hPa 1.2 miles / 2.0 kilometers WSW 9.2 mph / 14.8 km/h - 0.00 in / 0.0 cm Snow Light Snow
9:53 AM 25.0°F -3.9°C 21.9°F -5.6°C 88% 29.87 in / 1011.4 hPa 1.0 miles / 1.6 kilometers WSW 11.5 mph / 18.5 km/h - 0.00 in / 0.0 cm Snow Light Snow
10:18 AM 26.1°F -3.3°C 23.0°F -5.0°C 88% 29.81 in / 1009.4 hPa 1.0 miles / 1.6 kilometers West 11.5 mph / 18.5 km/h - 0.01 in / 0.3 cm Snow Light Snow
10:29 AM 26.1°F -3.3°C 23.0°F -5.0°C 88% 29.81 in / 1009.4 hPa 1.0 miles / 1.6 kilometers WSW 12.7 mph / 20.4 km/h - 0.01 in / 0.3 cm   Overcast
10:53 AM 28.0°F -2.2°C 24.1°F -4.4°C 85% 29.86 in / 1011.2 hPa 1.0 miles / 1.6 kilometers West 10.4 mph / 16.7 km/h - 0.01 in / 0.3 cm   Mostly Cloudy
11:00 AM 28.0°F -2.2°C 23.0°F -5.0°C 81% 29.80 in / 1009.0 hPa 10.0 miles / 16.1 kilometers West 10.4 mph / 16.7 km/h - N/A   Mostly Cloudy
11:20 AM 27.0°F -2.8°C 23.0°F -5.0°C 85% 29.80 in / 1009.0 hPa 10.0 miles / 16.1 kilometers WSW 11.5 mph / 18.5 km/h - N/A   Overcast
11:33 AM 28.0°F -2.2°C 23.0°F -5.0°C 81% 29.79 in / 1008.7 hPa 10.0 miles / 16.1 kilometers West 9.2 mph / 14.8 km/h - N/A   Overcast
11:53 AM 28.0°F -2.2°C 21.9°F -5.6°C 78% 29.86 in / 1011.0 hPa 4.0 miles / 6.4 kilometers West 11.5 mph / 18.5 km/h - 0.00 in / 0.0 cm Snow Light Snow
12:13 PM 27.0°F -2.8°C 24.1°F -4.4°C 89% 29.79 in / 1008.7 hPa 2.5 miles / 4.0 kilometers West 10.4 mph / 16.7 km/h - 0.00 in / 0.0 cm Snow Light Snow
12:21 PM 27.0°F -2.8°C 24.1°F -4.4°C 89% 29.79 in / 1008.7 hPa 3.0 miles / 4.8 kilometers WSW 10.4 mph / 16.7 km/h - 0.00 in / 0.0 cm Snow Light Snow
12:53 PM 28.0°F -2.2°C 23.0°F -5.0°C 81% 29.86 in / 1010.9 hPa 3.0 miles / 4.8 kilometers West 12.7 mph / 20.4 km/h - 0.00 in / 0.0 cm Snow Light Snow
1:28 PM 28.0°F -2.2°C 21.9°F -5.6°C 78% 29.80 in / 1009.0 hPa 5.0 miles / 8.0 kilometers West 10.4 mph / 16.7 km/h - 0.00 in / 0.0 cm Snow Light Snow
1:35 PM 27.0°F -2.8°C 21.0°F -6.1°C 78% 29.79 in / 1008.7 hPa 1.8 miles / 2.8 kilometers WNW 13.8 mph / 22.2 km/h 18.4 mph / 29.6 km/h 0.00 in / 0.0 cm Snow Light Snow
1:44 PM 28.0°F -2.2°C 21.9°F -5.6°C 78% 29.79 in / 1008.7 hPa 3.0 miles / 4.8 kilometers WNW 11.5 mph / 18.5 km/h - 0.00 in / 0.0 cm Snow Light Snow
1:51 PM 28.4°F -2.0°C 21.2°F -6.0°C 74% 29.80 in / 1009.0 hPa 9.0 miles / 14.5 kilometers West 8.1 mph / 13.0 km/h - 0.00 in / 0.0 cm Snow Light Snow
1:53 PM 28.0°F -2.2°C 21.0°F -6.1°C 75% 29.86 in / 1011.1 hPa 9.0 miles / 14.5 kilometers WNW 11.5 mph / 18.5 km/h - 0.00 in / 0.0 cm Snow Light Snow
2:53 PM 28.9°F -1.7°C 21.0°F -6.1°C 72% 29.85 in / 1010.8 hPa 10.0 miles / 16.1 kilometers WSW 9.2 mph / 14.8 km/h - 0.00 in / 0.0 cm   Overcast
3:53 PM 27.0°F -2.8°C 21.0°F -6.1°C 78% 29.87 in / 1011.4 hPa 10.0 miles / 16.1 kilometers WSW 13.8 mph / 22.2 km/h 20.7 mph / 33.3 km/h N/A   Overcast
4:53 PM 27.0°F -2.8°C 19.9°F -6.7°C 75% 29.88 in / 1011.7 hPa 10.0 miles / 16.1 kilometers WSW 12.7 mph / 20.4 km/h 20.7 mph / 33.3 km/h N/A   Overcast
5:53 PM 27.0°F -2.8°C 15.1°F -9.4°C 61% 29.90 in / 1012.3 hPa 10.0 miles / 16.1 kilometers WSW 16.1 mph / 25.9 km/h 23.0 mph / 37.0 km/h N/A   Overcast
6:53 PM 27.0°F -2.8°C 16.0°F -8.9°C 63% 29.91 in / 1012.7 hPa 10.0 miles / 16.1 kilometers WSW 13.8 mph / 22.2 km/h 23.0 mph / 37.0 km/h N/A   Overcast
7:53 PM 26.1°F -3.3°C 16.0°F -8.9°C 66% 29.91 in / 1012.8 hPa 10.0 miles / 16.1 kilometers WSW 11.5 mph / 18.5 km/h - N/A   Overcast
8:53 PM 26.1°F -3.3°C 16.0°F -8.9°C 66% 29.92 in / 1013.0 hPa 10.0 miles / 16.1 kilometers SW 9.2 mph / 14.8 km/h - N/A   Overcast
9:53 PM 26.1°F -3.3°C 16.0°F -8.9°C 66% 29.91 in / 1012.9 hPa 10.0 miles / 16.1 kilometers WSW 12.7 mph / 20.4 km/h 20.7 mph / 33.3 km/h N/A   Overcast
10:53 PM 26.1°F -3.3°C 16.0°F -8.9°C 66% 29.92 in / 1013.1 hPa 10.0 miles / 16.1 kilometers WSW 11.5 mph / 18.5 km/h - N/A   Overcast
11:53 PM 26.1°F -3.3°C 16.0°F -8.9°C 66% 29.92 in / 1013.0 hPa 10.0 miles / 16.1 kilometers WSW 10.4 mph / 16.7 km/h - N/A   Overcast